Hundvaag 1 weather for May 1999
Month no. 143
Obs.
Da.
Temp. Dew Point Precip. Wind
Speed
Wind gusts Cloud cover Press. Humidity Wind dir. Sunny OPT
01.05.1999 8,8   1,0     2       1  
02.05.1999 7,1   0,0     10       1  
03.05.1999 5,1   0,0     0          
04.05.1999 2,5   0,0     10       1  
05.05.1999 5,8   0,0     10       1  
06.05.1999 5,6   0,0     10       1  
07.05.1999 5,1   0,0     10       1  
08.05.1999 11,9   0,0     10       1  
09.05.1999 9,2   0,0     1          
10.05.1999 5,1   1,0     0          
11.05.1999 5,4   28,0     0       1  
12.05.1999 6,6   1,0     0       1  
13.05.1999 5,5   0,0     10       1  
14.05.1999 5,6   0,0     6       1  
15.05.1999 7,7   0,0     9       1  
16.05.1999 6,0   0,0     9       1  
17.05.1999 6,1   0,0     3       1  
18.05.1999 6,2   0,0     10       1  
19.05.1999 6,1   0,0     10       1  
20.05.1999 9,4   0,0     9       1  
21.05.1999 13,4   0,0     8       1  
22.05.1999 7,2   10,0     0          
23.05.1999 11,6   5,0     4       1  
24.05.1999 9,5   1,0     1       1  
25.05.1999 8,6   3,0     3       1  
26.05.1999 9,1   0,0     8          
27.05.1999 9,5   7,0     0       1  
28.05.1999 12,0   0,0     0       1  
29.05.1999 10,7   7,0     0       1  
30.05.1999 10,4   0,0     10       1  
31.05.1999 8,0   0,0     10       1  
Avrg/Sum 7,8   64,0     5,6       26